| time (UTC) | temp F | wind direction | speed MPH | gust MPH | rain 1hr in | rain 24hr in | rain mn in | humidity % | barometer mb |
| 20260502191651 | 75 | 68 | 4.0 | 12.0 | 0.00 | 0.64 | 0.00 | 53 | 1019.5 |
| 20260502191124 | 75 | 355 | 4.0 | 12.0 | 0.00 | 0.64 | 0.00 | 53 | 1019.5 |
| 20260502190849 | 75 | 280 | 4.0 | 9.0 | 0.00 | 0.65 | 0.00 | 51 | 1019.6 |
| 20260502190055 | 74 | 82 | 3.0 | 7.0 | 0.00 | 0.65 | 0.00 | 53 | 1019.5 |
| 20260502185528 | 75 | 340 | 2.0 | 8.0 | 0.00 | 0.66 | 0.00 | 54 | 1019.6 |
| 20260502185002 | 74 | 328 | 3.0 | 8.0 | 0.00 | 0.68 | 0.00 | 53 | 1019.6 |
| 20260502184639 | 74 | 40 | 3.0 | 8.0 | 0.00 | 0.72 | 0.00 | 56 | 1019.8 |
| 20260502184524 | 74 | 42 | 3.0 | 8.0 | 0.00 | 0.68 | 0.00 | 54 | 1019.8 |
| 20260502183428 | 73 | 39 | 3.0 | 8.0 | 0.00 | 0.75 | 0.00 | 54 | 1019.9 |
| 20260502182902 | 74 | 0 | 3.0 | 10.0 | 0.00 | 0.76 | 0.00 | 54 | 1020.0 |
| 20260502182827 | 74 | 36 | 3.0 | 10.0 | 0.00 | 0.77 | 0.00 | 54 | 1020.0 |
| 20260502181810 | 74 | 55 | 4.0 | 9.0 | 0.00 | 0.78 | 0.00 | 55 | 1020.1 |
| 20260502181302 | 74 | 18 | 4.0 | 10.0 | 0.00 | 0.78 | 0.00 | 56 | 1020.1 |
| 20260502181004 | 74 | 345 | 4.0 | 10.0 | 0.00 | 0.80 | 0.00 | 55 | 1020.2 |
| 20260502180454 | 73 | 99 | 4.0 | 10.0 | 0.00 | 0.80 | 0.00 | 57 | 1020.2 |
| 20260502170520 | 72 | 9 | 4.0 | 9.0 | 0.00 | 0.86 | 0.00 | 57 | 1020.6 |
| 20260502163855 | 71 | 24 | 5.0 | 11.0 | 0.00 | 0.89 | 0.00 | 59 | 1020.7 |
| 20260502163329 | 70 | 5 | 4.0 | 11.0 | 0.00 | 0.90 | 0.00 | 59 | 1020.7 |
| 20260502162803 | 70 | 55 | 4.0 | 10.0 | 0.00 | 0.91 | 0.00 | 60 | 1020.7 |
| 20260502162236 | 70 | 301 | 4.0 | 10.0 | 0.00 | 0.92 | 0.00 | 62 | 1020.7 |
| 20260502161957 | 70 | 34 | 3.0 | 9.0 | 0.00 | 0.97 | 0.00 | 62 | 1020.6 |
| 20260502161450 | 70 | 26 | 3.0 | 10.0 | 0.00 | 1.00 | 0.00 | 67 | 1020.7 |
| 20260502160727 | 69 | 42 | 4.0 | 10.0 | 0.00 | 1.02 | 0.00 | 68 | 1020.6 |
| 20260502160200 | 69 | 37 | 5.0 | 8.0 | 0.00 | 1.06 | 0.00 | 66 | 1020.5 |
| 20260502151959 | 66 | 9 | 3.0 | 11.0 | 0.00 | 1.11 | 0.00 | 74 | 1020.5 |
| 20260502151455 | 65 | 13 | 3.0 | 8.0 | 0.00 | 1.11 | 0.00 | 74 | 1020.4 |
| 20260502150936 | 65 | 60 | 2.0 | 9.0 | 0.00 | 1.15 | 0.00 | 76 | 1020.4 |
| 20260502150931 | 65 | 21 | 3.0 | 10.0 | 0.00 | 1.11 | 0.00 | 76 | 1020.4 |
| 20260502150611 | 64 | 71 | 3.0 | 10.0 | 0.00 | 1.20 | 0.00 | 76 | 1020.4 |
| 20260502130501 | 56 | 340 | 2.0 | 5.0 | 0.00 | 1.65 | 0.00 | 94 | 1019.3 |
| 20260502130418 | 55 | 30 | 2.0 | 6.0 | 0.00 | 1.68 | 0.00 | 94 | 1019.2 |
| 20260502123348 | 53 | 345 | 2.0 | 5.0 | 0.00 | 1.81 | 0.00 | 95 | 1018.7 |
| 20260502122822 | 53 | 342 | 2.0 | 4.0 | 0.00 | 1.85 | 0.00 | 95 | 1018.7 |
| 20260502122255 | 53 | 9 | 1.0 | 3.0 | 0.00 | 1.87 | 0.00 | 95 | 1018.7 |
| 20260502121753 | 53 | 9 | 1.0 | 3.0 | 0.00 | 1.88 | 0.00 | 95 | 1018.7 |
| 20260502121226 | 53 | 0 | 1.0 | 3.0 | 0.00 | 1.88 | 0.00 | 95 | 1018.6 |
| 20260502120944 | 53 | 0 | 1.0 | 3.0 | 0.00 | 1.89 | 0.00 | 95 | 1018.5 |
| 20260502120219 | 53 | 0 | 0.0 | 2.0 | 0.00 | 1.90 | 0.00 | 95 | 1018.4 |
| 20260502115651 | 53 | 0 | 1.0 | 2.0 | 0.00 | 1.92 | 0.00 | 95 | 1018.3 |
| 20260502115148 | 53 | 9 | 1.0 | 4.0 | 0.00 | 1.96 | 0.00 | 95 | 1018.1 |
| 20260502114842 | 53 | 351 | 0.0 | 3.0 | 0.00 | 2.06 | 0.00 | 94 | 1018.1 |
| 20260502114731 | 53 | 17 | 1.0 | 4.0 | 0.00 | 2.02 | 0.00 | 94 | 1018.1 |
| 20260502113611 | 53 | 350 | 1.0 | 2.0 | 0.00 | 2.06 | 0.00 | 94 | 1018.1 |
| 20260502113109 | 53 | 350 | 1.0 | 3.0 | 0.00 | 2.07 | 0.00 | 94 | 1018.0 |
| 20260502112542 | 53 | 349 | 0.0 | 3.0 | 0.00 | 2.09 | 0.00 | 94 | 1017.9 |
| 20260502112305 | 53 | 350 | 0.0 | 2.0 | 0.00 | 2.10 | 0.00 | 94 | 1017.9 |
| 20260502111958 | 53 | 349 | 1.0 | 3.0 | 0.00 | 2.10 | 0.00 | 94 | 1017.9 |
| 20260502111207 | 53 | 349 | 1.0 | 3.0 | 0.00 | 2.12 | 0.00 | 94 | 1017.8 |
| 20260502110442 | 53 | 346 | 1.0 | 3.0 | 0.00 | 2.14 | 0.00 | 94 | 1017.8 |
| 20260502105917 | 53 | 350 | 2.0 | 4.0 | 0.00 | 2.16 | 0.00 | 94 | 1017.8 |
| 20260502105350 | 53 | 337 | 2.0 | 4.0 | 0.00 | 2.17 | 0.00 | 94 | 1017.7 |
| 20260502104845 | 53 | 322 | 2.0 | 4.0 | 0.00 | 2.17 | 0.00 | 94 | 1017.6 |
| 20260502104341 | 53 | 25 | 2.0 | 4.0 | 0.00 | 2.18 | 0.00 | 94 | 1017.6 |
| 20260502103837 | 53 | 34 | 2.0 | 5.0 | 0.00 | 2.18 | 0.00 | 93 | 1017.6 |
| 20260502103331 | 53 | 38 | 1.0 | 5.0 | 0.00 | 2.18 | 0.00 | 93 | 1017.5 |
| 20260502102828 | 53 | 340 | 1.0 | 4.0 | 0.00 | 2.19 | 0.00 | 93 | 1017.5 |
| 20260502102305 | 53 | 19 | 2.0 | 6.0 | 0.00 | 2.20 | 0.00 | 93 | 1017.4 |
| 20260502102023 | 53 | 11 | 2.0 | 6.0 | 0.00 | 2.26 | 0.00 | 93 | 1017.3 |
| 20260502101232 | 53 | 335 | 2.0 | 4.0 | 0.00 | 2.29 | 0.00 | 93 | 1017.2 |
| 20260502100729 | 53 | 5 | 2.0 | 4.0 | 0.00 | 2.31 | 0.00 | 93 | 1017.1 |
| 20260502100226 | 53 | 355 | 1.0 | 4.0 | 0.00 | 2.32 | 0.00 | 93 | 1017.1 |
| 20260502091246 | 54 | 30 | 1.0 | 4.0 | 0.00 | 2.91 | 0.00 | 92 | 1016.1 |
| 20260502090455 | 54 | 28 | 1.0 | 4.0 | 0.00 | 2.92 | 0.00 | 92 | 1016.0 |
| 20260502071441 | 56 | 84 | 2.0 | 11.0 | 0.00 | 3.82 | 0.00 | 93 | 1015.9 |
| 20260502071143 | 56 | 19 | 2.0 | 5.0 | 0.00 | 3.82 | 0.00 | 94 | 1016.1 |
| 20260502070347 | 56 | 19 | 2.0 | 5.0 | 0.00 | 3.82 | 0.00 | 94 | 1016.1 |
| 20260502065844 | 55 | 24 | 3.0 | 9.0 | 0.00 | 3.82 | 0.00 | 94 | 1016.1 |
| 20260502065341 | 55 | 28 | 3.0 | 9.0 | 0.00 | 3.82 | 0.00 | 94 | 1016.1 |
| 20260502064839 | 55 | 5 | 2.0 | 6.0 | 0.00 | 3.82 | 0.00 | 94 | 1015.9 |
| 20260502064551 | 55 | 112 | 2.0 | 10.0 | 0.00 | 3.82 | 0.00 | 94 | 1015.8 |
| 20260502063825 | 55 | 13 | 3.0 | 10.0 | 0.00 | 3.82 | 0.00 | 94 | 1015.8 |
| 20260502063258 | 55 | 35 | 2.0 | 9.0 | 0.00 | 3.82 | 0.00 | 94 | 1015.8 |
| 20260502062754 | 55 | 61 | 2.0 | 7.0 | 0.00 | 3.82 | 0.00 | 95 | 1015.7 |
| 20260502062229 | 55 | 56 | 2.0 | 5.0 | 0.00 | 3.82 | 0.00 | 95 | 1015.7 |
| 20260502061931 | 55 | 52 | 2.0 | 6.0 | 0.00 | 3.82 | 0.00 | 94 | 1015.7 |
| 20260502061159 | 55 | 57 | 2.0 | 6.0 | 0.00 | 3.82 | 0.00 | 94 | 1015.7 |
| 20260502060658 | 55 | 38 | 3.0 | 7.0 | 0.00 | 3.82 | 0.00 | 94 | 1015.6 |
| 20260502060130 | 56 | 46 | 3.0 | 7.0 | 0.00 | 3.82 | 0.00 | 94 | 1015.7 |
| 20260502055626 | 56 | 103 | 3.0 | 10.0 | 0.00 | 3.83 | 0.00 | 95 | 1015.7 |
| 20260502055059 | 56 | 28 | 3.0 | 10.0 | 0.00 | 3.85 | 0.00 | 95 | 1015.7 |
| 20260502054820 | 56 | 53 | 4.0 | 12.0 | 0.00 | 3.87 | 0.00 | 95 | 1015.7 |
| 20260502054029 | 56 | 53 | 4.0 | 12.0 | 0.00 | 3.87 | 0.00 | 95 | 1015.6 |
| 20260502053528 | 56 | 345 | 3.0 | 11.0 | 0.00 | 3.87 | 0.00 | 95 | 1015.6 |
| 20260502053025 | 56 | 342 | 4.0 | 9.0 | 0.00 | 3.87 | 0.00 | 95 | 1015.6 |
| 20260502052459 | 56 | 340 | 4.0 | 9.0 | 0.00 | 3.87 | 0.00 | 95 | 1015.6 |
| 20260502051955 | 56 | 40 | 3.0 | 9.0 | 0.00 | 3.87 | 0.00 | 95 | 1015.7 |
| 20260502051453 | 56 | 355 | 3.0 | 10.0 | 0.00 | 3.87 | 0.00 | 96 | 1015.6 |
| 20260502050925 | 56 | 51 | 5.0 | 14.0 | 0.00 | 3.88 | 0.00 | 96 | 1015.6 |
| 20260502050649 | 56 | 56 | 4.0 | 14.0 | 0.00 | 3.94 | 0.00 | 96 | 1015.6 |
| 20260502045858 | 56 | 30 | 4.0 | 11.0 | 0.00 | 4.04 | 4.00 | 96 | 1015.5 |
| 20260502045839 | 56 | 48 | 4.0 | 11.0 | 0.00 | 4.06 | 4.00 | 96 | 1015.4 |
| 20260502044856 | 56 | 28 | 3.0 | 9.0 | 0.00 | 4.12 | 4.00 | 96 | 1015.5 |
| 20260502044331 | 56 | 5 | 3.0 | 9.0 | 0.00 | 4.15 | 4.00 | 96 | 1015.5 |
| 20260502044031 | 56 | 65 | 4.0 | 10.0 | 0.00 | 4.15 | 4.00 | 96 | 1015.5 |
| 20260502043250 | 56 | 69 | 4.0 | 11.0 | 0.00 | 4.15 | 4.00 | 96 | 1015.5 |
| 20260502042728 | 56 | 44 | 5.0 | 12.0 | 0.00 | 4.15 | 4.00 | 96 | 1015.4 |
| 20260502042225 | 56 | 18 | 4.0 | 12.0 | 0.00 | 4.15 | 4.00 | 96 | 1015.3 |
| 20260502041722 | 56 | 311 | 4.0 | 11.0 | 0.00 | 4.15 | 4.00 | 97 | 1015.3 |
| 20260502041225 | 56 | 303 | 4.0 | 11.0 | 0.00 | 4.15 | 4.00 | 97 | 1015.3 |
| 20260502040653 | 56 | 31 | 3.0 | 8.0 | 0.00 | 4.15 | 4.00 | 97 | 1015.5 |
| 20260502040135 | 56 | 26 | 3.0 | 7.0 | 0.00 | 4.15 | 4.00 | 97 | 1015.7 |
| 20260502035611 | 56 | 323 | 3.0 | 8.0 | 0.00 | 4.15 | 4.00 | 97 | 1015.7 |
| 20260502035044 | 56 | 0 | 4.0 | 9.0 | 0.00 | 4.15 | 4.00 | 97 | 1015.6 |
| 20260502034542 | 56 | 19 | 3.0 | 8.0 | 0.00 | 4.15 | 4.00 | 97 | 1015.6 |
| 20260502034024 | 56 | 13 | 3.0 | 10.0 | 0.00 | 4.15 | 4.00 | 97 | 1015.4 |
| 20260502033524 | 56 | 14 | 3.0 | 10.0 | 0.00 | 4.15 | 4.00 | 97 | 1015.4 |
| 20260502033245 | 56 | 5 | 4.0 | 10.0 | 0.00 | 4.15 | 4.00 | 97 | 1015.3 |
| 20260502032511 | 56 | 49 | 5.0 | 10.0 | 0.00 | 4.15 | 4.00 | 97 | 1015.2 |
| 20260502031953 | 56 | 307 | 5.0 | 14.0 | 0.00 | 4.15 | 4.00 | 97 | 1015.1 |
| 20260502031453 | 56 | 19 | 4.0 | 14.0 | 0.00 | 4.15 | 4.00 | 97 | 1015.0 |
| 20260502031204 | 56 | 0 | 3.0 | 8.0 | 0.02 | 4.15 | 4.00 | 97 | 1015.0 |
| 20260502030441 | 56 | 355 | 3.0 | 9.0 | 0.03 | 4.15 | 4.00 | 97 | 1014.8 |
| 20260502025940 | 56 | 24 | 3.0 | 9.0 | 0.03 | 4.15 | 4.00 | 97 | 1014.8 |
| 20260502025440 | 56 | 33 | 3.0 | 6.0 | 0.03 | 4.15 | 4.00 | 97 | 1014.6 |
| 20260502024943 | 56 | 5 | 4.0 | 10.0 | 0.04 | 4.15 | 4.00 | 97 | 1014.5 |
| 20260502024650 | 56 | 79 | 4.0 | 10.0 | 0.05 | 4.15 | 4.00 | 97 | 1014.2 |
| 20260502023906 | 56 | 66 | 4.0 | 10.0 | 0.06 | 4.15 | 4.00 | 97 | 1013.9 |
| 20260502023343 | 56 | 202 | 4.0 | 10.0 | 0.06 | 4.15 | 4.00 | 97 | 1013.9 |
| 20260502023110 | 56 | 111 | 3.0 | 7.0 | 0.07 | 4.15 | 4.00 | 97 | 1013.9 |
| 20260502022331 | 56 | 57 | 3.0 | 10.0 | 0.08 | 4.15 | 4.00 | 97 | 1014.1 |
| 20260502021831 | 56 | 13 | 3.0 | 8.0 | 0.09 | 4.15 | 4.00 | 97 | 1014.0 |
| 20260502021314 | 57 | 39 | 3.0 | 10.0 | 0.10 | 4.15 | 4.00 | 97 | 1013.9 |
| 20260502020816 | 57 | 73 | 3.0 | 9.0 | 0.09 | 4.13 | 3.98 | 97 | 1013.8 |
| 20260502020310 | 57 | 15 | 3.0 | 9.0 | 0.08 | 4.12 | 3.97 | 97 | 1013.7 |
| 20260502015807 | 57 | 16 | 3.0 | 8.0 | 0.08 | 4.12 | 3.97 | 97 | 1013.9 |
| 20260502015310 | 57 | 42 | 3.0 | 7.0 | 0.08 | 4.11 | 3.96 | 97 | 1013.8 |
| 20260502014750 | 57 | 16 | 3.0 | 8.0 | 0.08 | 4.11 | 3.96 | 97 | 1013.5 |
| 20260502014251 | 57 | 22 | 2.0 | 8.0 | 0.07 | 4.11 | 3.95 | 97 | 1013.8 |
| 20260502013740 | 57 | 25 | 2.0 | 7.0 | 0.06 | 4.10 | 3.94 | 97 | 1013.6 |
| 20260502013240 | 57 | 355 | 4.0 | 10.0 | 0.07 | 4.10 | 3.94 | 97 | 1013.2 |
| 20260502012726 | 58 | 355 | 3.0 | 10.0 | 0.06 | 4.09 | 3.93 | 97 | 1013.0 |
| 20260502012227 | 58 | 21 | 4.0 | 12.0 | 0.05 | 4.08 | 3.92 | 97 | 1013.0 |
| 20260502011726 | 58 | 343 | 4.0 | 12.0 | 0.04 | 4.07 | 3.91 | 97 | 1012.8 |
| 20260502011228 | 58 | 50 | 4.0 | 10.0 | 0.04 | 4.06 | 3.90 | 97 | 1013.0 |
| 20260502010707 | 58 | 22 | 3.0 | 10.0 | 0.05 | 4.05 | 3.89 | 97 | 1013.3 |
| 20260502010409 | 59 | 13 | 3.0 | 7.0 | 0.07 | 4.05 | 3.89 | 97 | 1013.5 |
| 20260502005647 | 59 | 0 | 3.0 | 8.0 | 0.07 | 4.04 | 3.88 | 97 | 1013.5 |
| 20260502005125 | 59 | 0 | 3.0 | 8.0 | 0.08 | 4.04 | 3.88 | 98 | 1012.7 |
| 20260502004610 | 59 | 0 | 3.0 | 9.0 | 0.09 | 4.04 | 3.88 | 97 | 1012.0 |
| 20260502004328 | 59 | 0 | 3.0 | 9.0 | 0.09 | 4.04 | 3.88 | 97 | 1011.8 |
| 20260502003611 | 59 | 0 | 4.0 | 11.0 | 0.09 | 4.04 | 3.88 | 97 | 1011.4 |
| 20260502003313 | 59 | 0 | 3.0 | 11.0 | 0.08 | 4.03 | 3.87 | 97 | 1011.6 |
| 20260502002526 | 59 | 0 | 3.0 | 9.0 | 0.08 | 4.03 | 3.87 | 97 | 1012.2 |
| 20260502002002 | 59 | 0 | 3.0 | 7.0 | 0.09 | 4.03 | 3.87 | 97 | 1012.8 |
| 20260502001458 | 59 | 0 | 2.0 | 7.0 | 0.09 | 4.02 | 3.87 | 97 | 1012.8 |
| 20260502001159 | 59 | 0 | 3.0 | 7.0 | 0.11 | 4.02 | 3.86 | 97 | 1012.2 |
| 20260502000412 | 59 | 0 | 3.0 | 8.0 | 0.14 | 3.99 | 3.83 | 97 | 1012.4 |
| 20260501235911 | 59 | 40 | 3.0 | 8.0 | 0.13 | 3.97 | 3.81 | 97 | 1012.5 |
| 20260501235625 | 59 | 51 | 3.0 | 9.0 | 0.14 | 3.96 | 3.80 | 97 | 1012.7 |
| 20260501234838 | 59 | 0 | 3.0 | 9.0 | 0.18 | 3.96 | 3.80 | 97 | 1012.2 |
| 20260501234338 | 59 | 0 | 3.0 | 8.0 | 0.20 | 3.95 | 3.79 | 98 | 1011.9 |
| 20260501233819 | 59 | 0 | 4.0 | 9.0 | 0.20 | 3.95 | 3.79 | 97 | 1011.9 |
| 20260501233303 | 59 | 0 | 3.0 | 10.0 | 0.20 | 3.95 | 3.79 | 97 | 1011.7 |
| 20260501232800 | 59 | 90 | 3.0 | 13.0 | 0.20 | 3.95 | 3.79 | 97 | 1011.4 |
| 20260501232744 | 59 | 351 | 4.0 | 13.0 | 0.20 | 3.95 | 3.79 | 97 | 1011.2 |
| 20260501231756 | 60 | 27 | 5.0 | 13.0 | 0.19 | 3.94 | 3.78 | 97 | 1010.9 |
| 20260501231256 | 60 | 84 | 5.0 | 13.0 | 0.17 | 3.92 | 3.76 | 97 | 1010.4 |
| 20260501230732 | 60 | 111 | 3.0 | 9.0 | 0.13 | 3.88 | 3.73 | 98 | 1011.0 |
| 20260501230208 | 60 | 76 | 3.0 | 9.0 | 0.09 | 3.84 | 3.69 | 98 | 1011.7 |
| 20260501225649 | 60 | 70 | 3.0 | 9.0 | 0.08 | 3.83 | 3.67 | 97 | 1011.7 |
| 20260501225132 | 60 | 40 | 4.0 | 12.0 | 0.06 | 3.80 | 3.64 | 97 | 1010.9 |
| 20260501224609 | 60 | 95 | 3.0 | 12.0 | 0.03 | 3.75 | 3.59 | 97 | 1010.5 |
| 20260501224051 | 60 | 40 | 5.0 | 14.0 | 0.03 | 3.75 | 3.59 | 97 | 1010.4 |
| 20260501223531 | 60 | 0 | 6.0 | 15.0 | 0.04 | 3.75 | 3.59 | 97 | 1009.6 |
| 20260501223030 | 60 | 89 | 5.0 | 19.0 | 0.05 | 3.75 | 3.59 | 97 | 1009.6 |
| 20260501222531 | 60 | 49 | 5.0 | 16.0 | 0.06 | 3.75 | 3.59 | 98 | 1009.6 |
| 20260501222233 | 61 | 63 | 5.0 | 16.0 | 0.06 | 3.75 | 3.59 | 97 | 1009.8 |
| 20260501221445 | 61 | 0 | 4.0 | 14.0 | 0.06 | 3.75 | 3.59 | 98 | 1009.9 |
| 20260501220946 | 61 | 60 | 3.0 | 13.0 | 0.06 | 3.75 | 3.59 | 98 | 1010.1 |
| 20260501220446 | 61 | 103 | 3.0 | 8.0 | 0.06 | 3.75 | 3.59 | 98 | 1010.4 |
| 20260501215920 | 61 | 28 | 4.0 | 8.0 | 0.07 | 3.75 | 3.59 | 98 | 1010.7 |
| 20260501215358 | 61 | 56 | 3.0 | 8.0 | 0.07 | 3.74 | 3.58 | 98 | 1011.3 |
| 20260501214838 | 61 | 70 | 3.0 | 7.0 | 0.08 | 3.74 | 3.58 | 98 | 1011.3 |
| 20260501214317 | 61 | 5 | 4.0 | 9.0 | 0.07 | 3.72 | 3.56 | 98 | 1011.0 |
| 20260501214037 | 61 | 5 | 3.0 | 9.0 | 0.08 | 3.72 | 3.56 | 98 | 1011.5 |
| 20260501213316 | 61 | 19 | 3.0 | 8.0 | 0.07 | 3.70 | 3.54 | 98 | 1011.3 |
| 20260501212758 | 61 | 13 | 2.0 | 8.0 | 0.07 | 3.69 | 3.53 | 98 | 1011.0 |
| 20260501212259 | 61 | 331 | 3.0 | 7.0 | 0.09 | 3.69 | 3.53 | 98 | 1011.1 |
| 20260501211759 | 61 | 19 | 3.0 | 7.0 | 0.09 | 3.69 | 3.53 | 98 | 1010.9 |
| 20260501211507 | 61 | 25 | 3.0 | 8.0 | 0.11 | 3.69 | 3.53 | 98 | 1010.7 |
| 20260501210747 | 61 | 310 | 4.0 | 9.0 | 0.12 | 3.69 | 3.53 | 98 | 1009.9 |
| 20260501210248 | 61 | 36 | 3.0 | 9.0 | 0.15 | 3.69 | 3.53 | 98 | 1009.6 |
| 20260501205728 | 61 | 24 | 3.0 | 8.0 | 0.15 | 3.68 | 3.52 | 98 | 1009.8 |
| 20260501205229 | 61 | 17 | 3.0 | 9.0 | 0.14 | 3.67 | 3.51 | 98 | 1009.8 |
| 20260501204727 | 61 | 32 | 3.0 | 9.0 | 0.13 | 3.66 | 3.50 | 98 | 1009.4 |
| 20260501204229 | 62 | 11 | 2.0 | 7.0 | 0.12 | 3.65 | 3.49 | 98 | 1010.4 |
| 20260501203954 | 61 | 26 | 3.0 | 7.0 | 0.11 | 3.64 | 3.48 | 98 | 1010.7 |
| 20260501203204 | 62 | 55 | 3.0 | 9.0 | 0.10 | 3.63 | 3.47 | 98 | 1009.9 |
| 20260501202640 | 61 | 108 | 4.0 | 10.0 | 0.10 | 3.62 | 3.46 | 98 | 1009.5 |
| 20260501202119 | 62 | 79 | 4.0 | 10.0 | 0.08 | 3.60 | 3.44 | 98 | 1009.6 |
| 20260501201619 | 62 | 47 | 4.0 | 9.0 | 0.08 | 3.60 | 3.44 | 98 | 1009.6 |
| 20260501201116 | 62 | 117 | 4.0 | 10.0 | 0.05 | 3.57 | 3.41 | 98 | 1008.8 |
| 20260501200551 | 62 | 45 | 4.0 | 10.0 | 0.05 | 3.56 | 3.40 | 98 | 1009.5 |
| 20260501200051 | 62 | 52 | 4.0 | 9.0 | 0.03 | 3.54 | 3.38 | 98 | 1010.0 |
| 20260501195548 | 63 | 9 | 4.0 | 9.0 | 0.03 | 3.53 | 3.37 | 98 | 1010.0 |
| 20260501195047 | 63 | 31 | 3.0 | 7.0 | 0.05 | 3.53 | 3.37 | 98 | 1009.6 |
| 20260501194744 | 63 | 17 | 2.0 | 6.0 | 0.05 | 3.53 | 3.37 | 98 | 1009.4 |
| 20260501194017 | 63 | 44 | 2.0 | 6.0 | 0.09 | 3.53 | 3.37 | 98 | 1009.4 |
| 20260501193519 | 63 | 74 | 2.0 | 8.0 | 0.11 | 3.53 | 3.37 | 98 | 1009.5 |
| 20260501193004 | 63 | 66 | 2.0 | 8.0 | 0.13 | 3.53 | 3.37 | 98 | 1009.4 |
| 20260501192502 | 63 | 34 | 2.0 | 6.0 | 0.13 | 3.52 | 3.36 | 98 | 1009.3 |
| 20260501192002 | 63 | 34 | 1.0 | 5.0 | 0.14 | 3.52 | 3.36 | 98 | 1009.4 |